Regional Weather Roundup
Issued by NWS Sterling, VA

Home | Current Version | Previous Version | Text Only | Print | Product List | Glossary Off
Versions: 1 2 3 4 5 6 7 8 9 10 11 12 13 14 15 16 17 18 19 20 21 22 23 24 25 26 27 28

000
ASUS41 KLWX 172211
RWRLWX

REGIONAL WEATHER ROUNDUP
NATIONAL WEATHER SERVICE BALTIMORE MD/WASHINGTON DC
600 PM EDT TUE OCT 17 2017

Note: "FAIR" indicates few or no clouds below 12,000 feet
with no significant weather and/or obstructions to visibility.
 TC=TEMPERATURE CELSIUS

 * =Non NWS site. Station does not report precipitation (e.g. rain,
    snow, etc.), thunder, or fog.

DCZ001-MDZ009-015-VAZ040>042-051-053>054-172300-
WASHINGTON METRO

CITY           SKY/WX    TMP DP  RH WIND       PRES   REMARKS
WASHINGTON NAT PTCLDY    60  33  36 S3        30.30S
DULLES         PTCLDY    60  33  36 CALM      30.29F
ANDREWS AFB    CLEAR     57  38  48 SE3       30.29R
FT BELVOIR     CLEAR     59  39  47 S3        30.30S
QUANTICO       PTCLDY    62  31  31 CALM      30.31S
COLLEGE PARK*  CLEAR     60  30  31 CALM      30.29S
LEESBURG*      CLEAR     63  36  36 CALM      30.30S
MANASSAS*      CLEAR     60  35  39 CALM      30.30S
GAITHERSBURG*  CLEAR     57  34  41 W3        30.30S

$$

MDZ006>007-011-014-172300-
BALTIMORE METRO

CITY           SKY/WX    TMP DP  RH WIND       PRES   REMARKS
BWI AIRPORT    PTCLDY    60  35  39 S3        30.29S
MD SCIENCE CTR   N/A     62  32  32 MISG      30.29S
MARTIN STATE   PTCLDY    57  45  62 SE7       30.31S
ANNAPOLIS      CLEAR     56  40  55 S6        30.30S
FORT MEADE*    CLEAR     54  41  62 CALM      30.32R

$$

MDZ012-015-019>023-172300-
MARYLAND EASTERN SHORE

CITY           SKY/WX    TMP DP  RH WIND       PRES   REMARKS
OCEAN CITY     CLEAR     54  41  61 VRB3      30.31F
SALISBURY      CLEAR     57  41  55 NE3       30.30S
CAMBRIDGE*     CLEAR     57  43  58 CALM      30.31S
EASTON*        CLEAR     57  37  47 W3        30.34S

$$

MDZ017>025-172300-
SOUTHERN MARYLAND

CITY           SKY/WX    TMP DP  RH WIND       PRES   REMARKS
PATUXENT RIVER PTCLDY    57  39  51 NE3       30.31S
ST INIGOES     CLEAR     57  41  55 CALM      30.30S
LEONARDTOWN*   NOT AVBL

$$

MDZ003>005-172300-
NORTH CENTRAL MARYLAND

CITY           SKY/WX    TMP DP  RH WIND       PRES   REMARKS
FREDERICK*     CLEAR     63  27  25 VRB5      30.31S
HAGERSTOWN APT CLEAR     62  34  35 S6        30.26F
WESTMINSTER*   CLEAR     61  36  39 CALM      30.28S

$$

MDZ501>502-172300-
WESTERN MARYLAND

CITY           SKY/WX    TMP DP  RH WIND       PRES   REMARKS
OAKLAND*       CLEAR     52  32  46 W5        30.26S
CUMBERLAND*    CLEAR     64  36  34 S3        30.30R

$$

VAZ025>031-172300-
SHENANDOAH VALLEY

CITY           SKY/WX    TMP DP  RH WIND       PRES   REMARKS
WINCHESTER*    CLEAR     57  34  41 SE3       30.28S
FRONT ROYAL*   CLEAR     59  34  38 CALM      30.27S
LURAY*         CLEAR     61  32  33 CALM      30.27F
NEW MARKET*    CLEAR     58  34  40 CALM      30.27S
STAUNTON*      CLEAR     60  32  35 CALM      30.29F
WAYNESBORO*    CLEAR     59  33  37 S3        30.28S

$$

WVZ021-048>050-054>055-172300-
EASTERN WEST VIRGINIA PANHANDLE

CITY           SKY/WX    TMP DP  RH WIND       PRES   REMARKS
MARTINSBURG    CLEAR     59  35  40 SE3       30.27S
PETERSBURG*    CLEAR     62  39  41 CALM      30.26S

$$

VAZ036>039-050-172300-
CENTRAL FOOTHILLS

CITY           SKY/WX    TMP DP  RH WIND       PRES   REMARKS
CHARLOTTESVILL CLEAR     61  34  36 SE5       30.29S
CULPEPER*      CLEAR     63  29  28 CALM      30.30S
ORANGE*        CLEAR     59  36  41 CALM      30.29F
GORDONSVILLE*  CLEAR     60  33  36 CALM      30.29S
WARRENTON*     CLEAR     62  25  24 CALM      30.29S

$$

VAZ055>057-172300-
NORTH AND CENTRAL PIEDMONT

CITY           SKY/WX    TMP DP  RH WIND       PRES   REMARKS
FREDERICKSBRG* CLEAR     59  40  49 SE6       30.30R
STAFFORD*      CLEAR     58  36  43 E3        30.34S

$$

NCZ024-NYZ072-PAZ021-071-VAZ022-071-172300-
OTHER REGIONAL OBSERVATIONS

CITY           SKY/WX    TMP DP  RH WIND       PRES   REMARKS
NEW YORK CITY  CLEAR     56  33  42 VRB3      30.27S
PHILADELPHIA   CLEAR     60  32  34 SW8       30.28S
PITTSBURGH     PTCLDY    61  37  41 SW10      30.24F
ROANOKE        CLEAR     62  34  35 CALM      30.29F
RICHMOND       PTCLDY    60  33  36 N6        30.30S
RALEIGH        PTCLDY    61  37  41 NE7       30.29S

$$

ANZ530>537-172300-
MARINE OBSERVATIONS

STATION/POSITION TIME  TEMP    WIND        PRES
                       AIR SEA DIR/SP/G
                 (UTC) (F)     (DEG/KT/KT) (MB)
THOMAS PT LIGHT  2200   57 68  140/  5/  6   N/A
BALT KEY BRIDGE  2142   59     150/  9/ 11 1025.5F
COVE POINT       2142   56      40/  2/  5 1027.0S
LEWISETTA        2142   58 64   40/  1/  2 1026.3S
SOLOMONS ISLAND  2142   57 70   70/  5/  6 1026.0R
PINEY POINT      2142          120/  3/  3   N/A

$$





USA.gov is the U.S. government's official web portal to all federal, state and local government web resources and services.